Location: Chuathbaluk
(61.5726°N, 159.2454°W)
Time: 14:40:04
(UTC+00:00)

NOAA 15 - Pass Details

Date: 18 January 2021
Orbit: 798 x 812 km, 98.7° (Epoch: 01 March)

Event Time Altitude Azimuth Distance (km) Brightness Sun altitude
Rises 17:20:53 0° 20° (NNE) 3,340 7.9 -14.0°
Reaches altitude 10° 17:23:37 10° 33° (NNE) 2,406 7.3 -13.7°
Maximum altitude 17:28:03 26° 90° (E) 1,549 6.9 -13.2°
Drops below altitude 10° 17:32:28 10° 146° (SE) 2,399 7.9 -12.7°
Sets 17:35:11 0° 159° (SSE) 3,327 8.4 -12.4°
